Location: Ferme V�ronneau
(45.1425°N, 71.8745°W)
Time: 10:31:51
(UTC-04:00)

Envisat - Visible Passes

Search period start: 15 October 2018 00:00
Search period end: 25 October 2018 00:00
Orbit: 764 x 766 km, 98.2° (Epoch: 15 October)

Date Brightness Start Highest point End Pass type
(mag) Time Alt. Az. Time Alt. Az. Time Alt. Az.
15 Oct 3.4 19:03:04 10° SE 19:07:49 42° ENE 19:12:36 10° N visible
15 Oct 5.0 20:42:47 10° SSW 20:46:59 26° W 20:51:13 10° NW visible
16 Oct 4.2 18:27:38 10° ESE 18:31:24 21° ENE 18:35:11 10° NNE visible
16 Oct 3.6 20:05:04 10° S 20:10:02 55° W 20:15:02 10° NNW visible
17 Oct 2.9 19:28:14 10° SSE 19:33:16 71° ENE 19:38:21 10° N visible
17 Oct 5.7 21:09:54 10° SW 21:12:49 15° W 21:15:45 10° NW visible
18 Oct 3.6 18:52:10 10° SE 18:56:43 34° ENE 19:01:16 10° N visible
18 Oct 4.6 20:31:12 10° SSW 20:35:43 32° W 20:40:16 10° NNW visible
19 Oct 3.2 19:53:46 10° S 19:58:49 69° WSW 20:03:55 10° NNW visible
20 Oct 3.0 19:17:10 10° SSE 19:22:07 57° ENE 19:27:07 10° N visible
20 Oct 5.4 20:57:56 10° SW 21:01:31 19° W 21:05:07 10° NW visible
21 Oct 3.9 18:41:21 10° ESE 18:45:37 28° ENE 18:49:54 10° N visible
21 Oct 4.2 20:19:43 10° SSW 20:24:29 40° W 20:29:16 10° NNW visible
22 Oct 3.0 19:42:33 10° SSE 19:47:38 86° WSW 19:52:45 10° NNW visible
22 Oct 6.0 21:26:12 10° W 21:27:24 11° W 21:28:37 10° WNW visible
23 Oct 3.2 19:06:10 10° SE 19:11:00 46° ENE 19:15:50 10° N visible
23 Oct 5.1 20:46:10 10° SW 20:50:13 24° W 20:54:18 10° NW visible
24 Oct 4.1 18:30:36 10° ESE 18:34:33 23° ENE 18:38:29 10° NNE visible
24 Oct 3.8 20:08:20 10° S 20:13:14 50° W 20:18:12 10° NNW visible
